This demonstration page uses our WeatherBlox Daily Observations layout. Learn more.

Left ArrowRight Arrow

Hourly Observations for July 29, 2016

Temp ( °F °C ) Dew Point ( °F °C ) Humidity (%) Winds ( mph kmh ) Pressure ( in mb ) Visibility ( mi km ) Precip ( " mm )
12:58 am 00:58 Cloudy 72 22 64 17.7 77 77 NNE 5 7 30.01 1016 10 16 0.00 0.00
1:58 am 01:58 Cloudy 71 21.5 65 18.3 82 82 NE 5 7 30.00 1016 10 16 0.00 0.00
2:58 am 02:58 Cloudy 70 21.1 64 17.8 82 82 NE 3 6 29.99 1016 10 16 0.00 0.00
3:58 am 03:58 Cloudy 69 20.7 65 18.4 87 87 Calm 29.99 1016 10 16 0.00 0.00
4:58 am 04:58 Cloudy 69 20.4 65 18.2 87 87 NNE 3 6 29.98 1015 10 16 0.00 0.00
5:39 am 05:39 Mostly Cloudy with Light Rain 68 20 64 18 88 88 NNE 1 2 29.97 1015 10 16 0.00 0.00
5:53 am 05:53 Cloudy 68 20 64 18 88 88 NNE 6 9 29.97 1015 10 16 0.00 0.00
5:58 am 05:58 Cloudy 68 20.2 65 18.3 89 89 NNE 7 11 29.99 1016 10 16 0.00 0.03
6:14 am 06:14 Cloudy with Light Rain 68 20 64 18 88 88 NNE 9 15 29.97 1015 10 16 0.00 0.00
6:46 am 06:46 Mostly Cloudy 68 20 64 18 88 88 NNE 8 13 29.97 1015 10 16 0.00 0.00
6:58 am 06:58 Mostly Cloudy 67 19.6 65 18.5 93 93 NNE 5 7 30.01 1016 10 16 0.00 0.03
7:20 am 07:20 Mostly Cloudy 68 20 64 18 88 88 ENE 5 7 30.00 1016 10 16 0.00 0.00
7:58 am 07:58 Cloudy 68 20.1 63 17.4 85 85 NE 1 2 30.05 1018 10 16 0.00 0.00
8:58 am 08:58 Cloudy 69 20.3 63 17.4 84 84 ESE 3 6 30.07 1018 10 16 0.00 0.00
9:58 am 09:58 Cloudy 69 20.8 62 16.8 78 78 NE 3 6 30.05 1018 10 16 0.00 0.00
10:58 am 10:58 Mostly Cloudy 71 21.6 62 16.5 73 73 N 3 6 30.05 1018 10 16 0.00 0.00
11:58 am 11:58 Partly Cloudy 76 24.3 62 16.6 62 62 VRB 6 9 30.04 1017 10 16 0.00 0.00
12:58 pm 12:58 Partly Cloudy 79 25.9 61 16 54 54 N 6 9 30.03 1017 10 16 0.00 0.00
1:58 pm 13:58 Mostly Sunny 80 26.4 59 15.2 50 50 NNW 8 13 30.02 1017 10 16 0.00 0.00
2:58 pm 14:58 Mostly Cloudy 80 26.5 59 15.1 50 50 WNW 6 9 30.01 1016 10 16 0.00 0.00
3:58 pm 15:58 Partly Cloudy 81 27 61 16 51 51 N 7 11 30.00 1016 10 16 0.00 0.00
4:58 pm 16:58 Sunny 80 26.6 60 15.7 51 51 N 8 13 29.98 1015 10 16 0.00 0.00
5:58 pm 17:58 Mostly Sunny 80 26.4 60 15.4 51 51 N 9 15 29.99 1016 10 16 0.00 0.00
6:58 pm 18:58 Sunny 79 26 63 17.3 59 59 ENE 7 11 29.98 1015 10 16 0.00 0.00
7:58 pm 19:58 Sunny 75 24 64 17.7 68 68 ENE 7 11 29.99 1016 10 16 0.00 0.00
8:58 pm 20:58 Clear 71 21.8 63 17.3 76 76 NE 6 9 30.01 1016 10 16 0.00 0.00
9:58 pm 21:58 Clear 68 20.1 63 17.4 85 85 NE 7 11 30.00 1016 10 16 0.00 0.00
10:58 pm 22:58 Clear 67 19.4 63 17.2 87 87 NE 5 7 30.00 1016 10 16 0.00 0.00
11:58 pm 23:58 Clear 65 18.5 62 16.5 88 88 NNE 5 7 30.00 1016 10 16 0.00 0.00

Powered by AerisWeather